Regional Weather Roundup
Issued by NWS Charleston, SC

Current Version | Previous Version | Graphics & Text | Print | Product List | Glossary On
Versions: 1 2 3 4 5 6 7 8 9 10 11 12 13 14 15 16 17 18 19 20 21 22 23 24 25 26 27 28 29 30 31 32 33 34 35 36 37 38 39 40 41 42 43 44 45 46 47 48 49 50
000 ASUS42 KCHS 010127 RWRCHS REGIONAL WEATHER ROUNDUP NATIONAL WEATHER SERVICE CHARLESTON SC 900 PM EDT FRI JUL 31 2015 NOTE: "FAIR" INDICATES FEW OR NO CLOUDS BELOW 12,000 FEET WITH NO SIGNIFICANT WEATHER AND/OR OBSTRUCTIONS TO VISIBILITY. NOT ALL STATIONS ARE QUALITY CONTROLLED BY THE NATIONAL WEATHER SERVICE. USE DATA WITH CAUTION...ESPECIALLY DEWPOINT OBSERVATIONS. SCZ027-030-031-034>040-042>050-010200- ...SOUTHEAST SOUTH CAROLINA... CITY SKY/WX TMP DP RH WIND PRES REMARKS N CHARLESTON MOCLDY 80 75 84 CALM 29.92R WATERFRONT PRK N/A 83 79 87 S7 29.89R HX 94 MOUNT PLEASANT LGT RAIN 82 79 89 CALM 29.94R HX 93 JOHNS ISLAND FAIR 82 77 83 S7 29.93R HX 91 PINOPOLIS NOT AVBL MONCKS CORNER FAIR 77 73 88 CALM 29.94R SUMMERVILLE FAIR 77 77 100 CALM 29.94R BEAUFORT MCAS FAIR 79 75 87 CALM 29.93R BEAUFORT ARPT FAIR 77 73 88 CALM 29.93R HILTON HEAD IS MOCLDY 79 77 94 CALM 29.95R WALTERBORO FAIR 79 75 89 SW3 29.94R ALLENDALE FAIR 79 73 83 CALM 29.93R ...SOUTHERN MIDLANDS AND PEE DEE... CITY SKY/WX TMP DP RH WIND PRES REMARKS GEORGETOWN NOT AVBL KINGSTREE NOT AVBL ORANGEBURG FAIR 78 74 87 S3 29.93R BARNWELL FAIR 81 75 83 S3 29.94R AIKEN MOCLDY 82 70 65 SE3 29.97R MANNING RAIN 77 70 78 CALM 29.93R COLUMBIA FAIR 85 71 63 S6 29.90R HX 90 SUMTER FAIR 84 72 66 SW6 29.90R FLORENCE FAIR 81 71 71 S18G24 29.93R MYRTLE BEACH MOCLDY 81 73 78 W17 29.96R N MYRTLE BEACH LGT RAIN 81 77 88 N9 29.94R $$ GAZ063-065-086>088-099>101-113>116-118-119-134>141-150-010200- ...SOUTHEAST GEORGIA... CITY SKY/WX TMP DP RH WIND PRES REMARKS SAVANNAH ARPT CLOUDY 77 75 93 CALM 29.94R HUNTER AAF CLOUDY 79 77 94 NE3 29.91R FORT STEWART CLOUDY 77 77 100 S2 29.90R STATESBORO CLOUDY 75 32 20 CALM 29.94R SYLVANIA CLOUDY 77 76 97 CALM 29.95R CLAXTON NOT AVBL ...CSRA...CENTRAL AND FAR SOUTHEAST GEORGIA... CITY SKY/WX TMP DP RH WIND PRES REMARKS THOMSON PTCLDY 83 76 79 CALM 29.97R HX 90 AUGUSTA-BUSH PTCLDY 82 72 71 S7 29.90R AUGUSTA-DANIEL PTCLDY 84 72 67 S7 29.92R SWAINSBORO FAIR N/A N/A N/A CALM 29.95R VIDALIA CLOUDY 77 72 83 SW3 29.93R EASTMAN LGT RAIN 76 76 100 CALM 29.95S HAZLEHURST FAIR 80 75 84 CALM 29.92R ALMA CLOUDY 77 73 87 SE3 29.92S WAYCROSS CLOUDY 78 76 95 S8 29.89R JESUP LGT RAIN 79 77 94 CALM 29.93S BAXLEY FAIR 79 73 83 CALM 29.93R BRUNSWICK CLOUDY 77 72 83 SW6 29.94R SAINT SIMONS CLOUDY 74 72 93 S8 29.92F $$ SCZ027-028-034-036>038-045-046-048>050-GAZ119-141-010200- ...LAKE AND SUPPLEMENTAL COASTAL OBSERVATIONS... STATION/POSITION TIME TEMP WIND PRES WAVE SWELL AIR SEA DIR/SP/G HT/PER HT/PER/DIR (UTC) (F) (DEG/KT/KT) (MB) (FT/S) (FT/S/D) UPR LAKE MARION NOT AVBL WINYAH BAY 0045 81 270/ 4 1013.0R LAKE MURRAY 0000 90 340/ 2/ 6 1011.5R ACE BASIN NERRS NOT AVBL FORT PULASKI 0100 83 86 190/ 5/ 10 1014.1R SAPELO ISLAND 0100 80 220/ 12 1013.0S $$ ANZ835-935-AMZ111-154-330-350-352-354-370-450-454-472-010200- ...C-MAN AND BUOY OBSERVATIONS... STATION/POSITION TIME TEMP WIND PRES WAVE SWELL AIR SEA DIR/SP/G HT/PER HT/PER/DIR (UTC) (F) (DEG/KT/KT) (MB) (FT/S) (FT/S/D) BUOY 41004 0050 83 84 210/ 16/ 17 1012.6R 3/ 8 2/ 8 BUOY 41008 0050 83 83 190/ 14/ 16 1013.1R 3/ 4 FOLLY BEACH CMAN 0100 82 210/ 14/ 16 1013.5R CAPERS NEARSHORE 0008 82 220/ 16/ 19 1012.8R FRIPP NEARSHORE 0000 83 210/ 10/ 12 1012.3S STATION/POSITION TIME TEMP WIND PRES WAVE SWELL AIR SEA DIR/SP/G HT/PER HT/PER/DIR (UTC) (F) (DEG/KT/KT) (MB) (FT/S) (FT/S/D) 5E ST. MARYS GA 0021 84 N/A 3/ 4 FRYING PAN BUOY 0050 84 85 230/ 16/ 17 1013.5R 4/ 6 2/110/10 BUOY 41025 0050 81 85 360/ 4/ 6 1013.3 4/ 8 3/180/ 8 CAPE LOOKOUT NC 0100 79 320/ 8/ 9 1012.7R BUOY 41002 0050 82 81 240/ 17/ 21 1015.2S 7/ 8 2/210/14 BUOY 41010 0020 83 84 190/ 17/ 21 1015.5R ST AUGUSTINE FL 0100 81 82 220/ 6/ 7 1014.7R $$

USA.gov is the U.S. government's official web portal to all federal, state and local government web resources and services.